TimeMDT,TemperatureF,Dew PointF,Humidity,Sea Level PressureIn,VisibilityMPH,Wind Direction,Wind SpeedMPH,Gust SpeedMPH,PrecipitationIn,Events,Conditions,WindDirDegrees,DateUTC
12:15 AM,56.1,21.6,26,30.21,10.0,WNW,4.6,-,N/A,,Clear,300,2012-10-03 06:15:00
12:35 AM,55.2,21.9,27,30.21,10.0,NW,6.9,-,N/A,,Clear,310,2012-10-03 06:35:00
12:55 AM,56.5,21.7,26,30.21,10.0,NW,4.6,-,N/A,,Clear,320,2012-10-03 06:55:00
1:15 AM,53.8,22.3,29,30.21,10.0,WNW,4.6,-,N/A,,Clear,300,2012-10-03 07:15:00
1:35 AM,54.0,22.1,29,30.21,10.0,NNW,3.5,-,N/A,,Clear,330,2012-10-03 07:35:00
1:55 AM,54.9,21.4,27,30.21,10.0,NW,5.8,-,N/A,,Clear,320,2012-10-03 07:55:00
2:15 AM,53.6,21.7,29,30.21,10.0,NNW,4.6,-,N/A,,Clear,330,2012-10-03 08:15:00
2:35 AM,51.1,22.1,32,30.21,10.0,Calm,Calm,-,N/A,,Clear,0,2012-10-03 08:35:00
2:55 AM,50.0,21.9,33,30.20,10.0,Calm,Calm,-,N/A,,Clear,0,2012-10-03 08:55:00
3:15 AM,50.2,21.9,33,30.20,10.0,Calm,Calm,-,N/A,,Clear,0,2012-10-03 09:15:00
3:35 AM,50.5,21.6,32,30.20,10.0,NNW,4.6,-,N/A,,Clear,340,2012-10-03 09:35:00
3:55 AM,51.4,21.0,30,30.20,10.0,NNW,9.2,-,N/A,,Clear,330,2012-10-03 09:55:00
4:15 AM,50.7,21.0,31,30.20,10.0,NNW,11.5,-,N/A,,Clear,340,2012-10-03 10:15:00
4:55 AM,49.3,22.3,35,30.21,10.0,WSW,4.6,-,N/A,,Clear,250,2012-10-03 10:55:00
5:15 AM,48.6,22.5,36,30.21,10.0,Calm,Calm,-,N/A,,Clear,0,2012-10-03 11:15:00
5:55 AM,44.1,23.4,44,30.21,10.0,Calm,Calm,-,N/A,,Clear,0,2012-10-03 11:55:00
6:15 AM,42.6,23.4,47,30.21,10.0,Calm,Calm,-,N/A,,Clear,0,2012-10-03 12:15:00
6:35 AM,43.2,23.0,45,30.22,10.0,Calm,Calm,-,N/A,,Clear,0,2012-10-03 12:35:00
6:55 AM,41.9,23.0,47,30.22,10.0,SSW,4.6,-,N/A,,Clear,210,2012-10-03 12:55:00
7:15 AM,40.6,24.1,52,30.22,10.0,Calm,Calm,-,N/A,,Clear,0,2012-10-03 13:15:00
7:35 AM,42.8,24.1,48,30.23,10.0,Calm,Calm,-,N/A,,Clear,0,2012-10-03 13:35:00
7:55 AM,47.1,23.2,39,30.24,10.0,NNW,3.5,-,N/A,,Clear,340,2012-10-03 13:55:00
8:15 AM,47.1,23.4,39,30.24,10.0,Calm,Calm,-,N/A,,Clear,0,2012-10-03 14:15:00
8:35 AM,49.5,24.8,38,30.24,10.0,Calm,Calm,-,N/A,,Clear,0,2012-10-03 14:35:00
8:55 AM,51.6,24.8,35,30.23,10.0,Calm,Calm,-,N/A,,Clear,0,2012-10-03 14:55:00
9:15 AM,52.0,24.4,34,30.22,10.0,NNW,6.9,-,N/A,,Clear,340,2012-10-03 15:15:00
9:35 AM,57.4,24.4,28,30.22,10.0,North,5.8,-,N/A,,Clear,360,2012-10-03 15:35:00
9:55 AM,59.0,24.3,26,30.22,10.0,North,10.4,-,N/A,,Clear,350,2012-10-03 15:55:00
10:35 AM,67.5,21.4,17,30.19,10.0,Calm,Calm,-,N/A,,Clear,0,2012-10-03 16:35:00
10:55 AM,69.1,21.0,16,30.19,10.0,NNE,4.6,-,N/A,,Clear,20,2012-10-03 16:55:00
11:15 AM,69.6,19.4,15,30.19,10.0,Calm,Calm,-,N/A,,Clear,0,2012-10-03 17:15:00
11:55 AM,73.2,18.5,13,30.17,7.0,West,20.7,27.6,N/A,,Clear,260,2012-10-03 17:55:00
12:15 PM,74.5,18.7,12,30.16,10.0,WSW,20.7,28.8,N/A,,Clear,250,2012-10-03 18:15:00
12:35 PM,74.1,18.9,12,30.16,10.0,WSW,23.0,32.2,N/A,,Clear,250,2012-10-03 18:35:00
12:55 PM,74.5,16.5,11,30.15,10.0,West,24.2,35.7,N/A,,Clear,270,2012-10-03 18:55:00
1:35 PM,75.2,17.1,11,30.14,10.0,WSW,16.1,23.0,N/A,,Clear,250,2012-10-03 19:35:00
1:55 PM,75.9,18.1,11,30.13,10.0,WSW,24.2,31.1,N/A,,Clear,250,2012-10-03 19:55:00
2:15 PM,75.7,16.3,11,30.14,10.0,West,19.6,27.6,N/A,,Scattered Clouds,260,2012-10-03 20:15:00
2:35 PM,75.4,13.3,9,30.14,10.0,West,25.3,32.2,N/A,,Scattered Clouds,260,2012-10-03 20:35:00
2:55 PM,75.2,12.4,9,30.14,10.0,West,24.2,34.5,N/A,,Clear,260,2012-10-03 20:55:00
3:15 PM,75.4,13.5,9,30.13,10.0,WSW,21.9,35.7,N/A,,Clear,240,2012-10-03 21:15:00
3:35 PM,75.2,13.1,9,30.14,10.0,West,21.9,28.8,N/A,,Clear,270,2012-10-03 21:35:00
3:55 PM,74.3,12.2,9,30.15,10.0,West,21.9,40.3,N/A,,Clear,260,2012-10-03 21:55:00
4:15 PM,75.2,12.4,9,30.15,10.0,West,23.0,29.9,N/A,,Clear,270,2012-10-03 22:15:00
4:55 PM,74.1,12.4,9,30.17,10.0,West,17.3,27.6,N/A,,Clear,280,2012-10-03 22:55:00
5:15 PM,73.8,11.1,9,30.17,10.0,WNW,23.0,34.5,N/A,,Clear,290,2012-10-03 23:15:00
5:35 PM,72.5,12.9,10,30.17,10.0,West,17.3,25.3,N/A,,Clear,260,2012-10-03 23:35:00
5:55 PM,71.2,12.0,10,30.18,10.0,WNW,15.0,20.7,N/A,,Clear,290,2012-10-03 23:55:00
6:15 PM,70.5,11.8,10,30.19,10.0,WNW,12.7,-,N/A,,Clear,300,2012-10-04 00:15:00
6:35 PM,69.6,12.2,11,30.19,10.0,West,9.2,-,N/A,,Clear,280,2012-10-04 00:35:00
6:55 PM,68.0,13.3,12,30.20,10.0,WNW,10.4,-,N/A,,Clear,290,2012-10-04 00:55:00
7:35 PM,68.7,12.0,11,30.22,10.0,NW,10.4,17.3,N/A,,Clear,310,2012-10-04 01:35:00
7:55 PM,64.9,12.9,13,30.23,10.0,West,5.8,-,N/A,,Clear,280,2012-10-04 01:55:00
8:35 PM,65.7,12.4,13,30.24,10.0,WNW,5.8,-,N/A,,Clear,300,2012-10-04 02:35:00
8:55 PM,67.1,11.5,12,30.24,10.0,NNW,9.2,23.0,N/A,,Clear,330,2012-10-04 02:55:00
9:15 PM,65.1,12.0,13,30.24,10.0,WNW,4.6,-,N/A,,Clear,290,2012-10-04 03:15:00
9:35 PM,64.8,11.8,13,30.24,10.0,Calm,Calm,-,N/A,,Clear,0,2012-10-04 03:35:00
9:55 PM,59.9,14.5,17,30.24,10.0,SSE,6.9,-,N/A,,Clear,150,2012-10-04 03:55:00
10:15 PM,59.0,14.7,18,30.25,10.0,South,8.1,-,N/A,,Clear,190,2012-10-04 04:15:00
10:35 PM,64.8,13.8,14,30.25,10.0,West,3.5,-,N/A,,Clear,280,2012-10-04 04:35:00
10:55 PM,60.4,15.6,17,30.25,10.0,West,3.5,-,N/A,,Clear,280,2012-10-04 04:55:00
11:15 PM,58.5,17.1,20,30.26,10.0,WSW,8.1,-,N/A,,Clear,240,2012-10-04 05:15:00
11:35 PM,54.9,17.8,23,30.25,10.0,SSW,5.8,-,N/A,,Clear,200,2012-10-04 05:35:00
11:55 PM,55.6,17.6,23,30.27,10.0,SSW,4.6,-,N/A,,Clear,200,2012-10-04 05:55:00